Location: ??????
(51.1333°N, 71.4333°E)
Time: 12:33:05
(UTC+00:00)

Daily predictions for brighter satellites

Satellite Brightness Start Highest point End
(mag) Time Altitude Azimuth Time Altitude Azimuth Time Altitude Azimuth
H-2A R/B 3.7 12:03:26 10° ENE 12:05:45 13° NE 12:08:03 10° NNE
Cosmos 2360 Rocket 4.2 12:02:16 10° WNW 12:05:55 17° NNW 12:09:34 10° N
CZ-4B DEB 4.3 12:01:19 10° SSE 12:06:48 87° WSW 12:12:19 10° NNW
Cosmos 2219 Rocket 3.8 12:03:22 10° WSW 12:08:12 28° NW 12:13:03 10° NNE
Cosmos 2333 Rocket 3.8 12:04:43 10° W 12:09:28 27° NW 12:14:15 10° NNE
TELKOM 3 3.4 12:07:46 10° W 12:10:41 68° S 12:12:53 12° E
CORIOLIS 4.3 12:06:29 10° SE 12:11:46 56° ENE 12:17:06 10° N
Cosmos 1356 4.4 12:11:53 10° NNW 12:15:14 52° W 12:18:34 10° S
COSMOS 2428 4.3 12:11:54 10° WSW 12:16:51 29° NW 12:21:49 10° NNE
Landsat 5 3.6 12:12:56 10° NNE 12:17:23 67° ESE 12:21:53 10° S
CRYOSAT 2 4.3 12:14:01 10° N 12:18:56 73° E 12:23:50 10° S
PAYLOAD B 4.4 12:16:34 10° SSE 12:22:09 80° WSW 12:27:45 10° NNW
Meteor 1-4 Rocket 3.2 12:21:53 10° SSE 12:25:07 33° E 12:27:49 13° NNE
Cosmos 389 Rocket 3.0 12:23:28 10° SSW 12:26:50 56° WNW 12:30:13 10° N
Meteor 1-20 Rocket 4.3 12:20:57 10° NNW 12:26:51 89° ENE 12:32:40 10° S
Cosmos 864 Rocket 4.5 12:21:33 10° N 12:27:53 69° ENE 12:34:05 10° SSE
Cosmos 2237 Rocket 3.1 12:23:59 10° WSW 12:29:23 45° NW 12:34:50 10° NNE
Sich 1 4.2 12:25:57 10° NNW 12:30:10 47° W 12:34:18 10° SSW
NOAA 11 4.2 12:25:23 10° SSE 12:30:42 61° ENE 12:36:06 10° N
SL-8 Rocket 4.0 12:25:12 10° N 12:31:29 88° ENE 12:37:47 10° S
AQUARIUS 4.1 12:27:01 10° SSE 12:31:29 79° ENE 12:36:01 10° NNW
Cosmos 371 Rocket 4.4 12:27:34 10° N 12:31:31 24° NE 12:34:00 16° E
NOAA 12 4.1 12:27:12 10° SSE 12:32:31 87° ENE 12:37:53 10° NNW
CZ-4B R/B 3.1 12:27:32 10° SSE 12:32:51 89° WSW 12:38:11 10° NNW
SL-16 R/B 4.4 12:32:54 10° NNW 12:34:16 11° NNW 12:35:38 10° N
Cosmos 1943 Rocket 2.4 12:28:58 10° NNW 12:34:31 73° WSW 12:40:05 10° SSE
Cosmos 1151 Rocket 2.9 12:31:13 10° S 12:35:27 69° E 12:39:43 10° NNE
Cosmos 2341 Rocket 4.4 12:29:42 10° NNW 12:35:58 69° W 12:42:15 10° S
Cosmos 2369 Rocket 2.1 12:30:32 10° NNW 12:36:16 78° ENE 12:41:56 10° SE
YAOGAN 1 3.8 12:35:14 18° E 12:36:33 21° ENE 12:39:48 10° NNE
Cosmos 1959 Rocket 4.5 12:30:15 10° N 12:36:40 81° E 12:43:01 10° SSE
Cosmos 1470 Rocket 3.4 12:33:04 10° N 12:37:24 67° ENE 12:41:42 10° SSE
Cosmos 1943 4.1 12:32:45 10° SSE 12:37:27 28° ESE 12:40:18 19° ENE
Cosmos 1812 4.2 12:36:01 10° SE 12:38:08 18° E 12:38:08 18° E
ISS -3.8 12:36:13 10° W 12:39:36 83° N 12:41:28 24° E
Meteor 1-26 Rocket 4.4 12:34:51 10° S 12:40:48 64° E 12:46:43 10° NNE
OPS 6432 4.5 12:39:22 10° SW 12:43:29 74° SE 12:45:14 26° NE
Envisat 4.2 12:40:45 10° S 12:45:38 46° W 12:50:33 10° NNW
ARGOS 4.3 12:45:11 20° ENE 12:45:43 21° NE 12:49:36 10° N
Cosmos 1602 3.6 12:42:19 10° N 12:46:15 86° ENE 12:50:09 10° S
Cosmos 1515 Rocket 3.8 12:42:48 10° SSE 12:47:02 48° E 12:51:11 11° NNE
Cosmos 1821 Rocket 4.2 12:41:18 10° N 12:47:19 47° ENE 12:53:23 10° SE
Meteor 1-14 Rocket 4.3 12:41:31 10° N 12:47:31 73° ENE 12:53:30 10° SSE
SMAP 3.5 12:43:33 10° S 12:48:11 67° WSW 12:52:51 10° NNW
Cosmos 1867 4.1 12:43:05 10° WSW 12:48:27 55° NW 12:52:53 15° NE
Helios 1A Rocket 3.8 12:48:15 25° E 12:48:57 27° ENE 12:52:22 10° N
Cosmos 1939 Rocket 2.9 12:46:58 10° SSE 12:50:44 51° ENE 12:54:37 10° N
Cosmos 773 Rocket 4.0 12:46:00 10° SSW 12:51:17 89° ESE 12:56:22 11° NNE
COSMO-SKYMED 1 3.3 12:49:44 23° NE 12:51:33 32° E 12:55:27 10° SSE
CZ-4 R/B 2.1 12:53:44 27° E 12:54:46 30° ENE 12:58:23 10° N
YAOGAN 3 4.5 12:53:53 10° SSE 12:58:12 65° ENE 13:02:32 10° N
CZ-3B R/B 3.5 12:59:51 10° SSE 12:59:58 10° SSE 12:59:58 10° SSE
CZ-2D R/B 3.4 12:56:54 10° SE 13:00:34 46° ENE 13:04:17 10° N
Cosmos 2181 Rocket 4.2 12:56:06 10° SSW 13:02:30 77° W 13:08:51 10° N
Cosmos 2228 Rocket 3.6 12:59:45 10° SSE 13:03:54 37° E 13:05:00 32° ENE
USA 281 3.3 12:58:45 10° SE 13:05:04 52° NE 13:11:25 10° NNW
MOS 1 Rocket 4.4 13:05:03 29° E 13:05:39 29° E 13:10:17 10° SSE
Cosmos 1328 Rocket 3.8 13:01:39 10° SSW 13:05:57 69° WNW 13:10:20 10° N
ERS-2 2.2 13:05:47 38° NE 13:06:53 54° ESE 13:10:28 10° S
Cosmos 1933 Rocket 3.5 13:02:54 10° N 13:07:24 89° W 13:11:52 10° S
CZ-4B R/B 1.1 13:07:12 52° NE 13:07:47 68° ESE 13:10:56 10° S
Cosmos 1238 Rocket 3.1 13:06:20 10° N 13:10:11 49° ENE 13:14:50 10° SSE
Cosmos 1782 2.8 13:06:48 10° SSW 13:10:46 81° W 13:14:19 13° N
Meteor 1-10 Rocket 4.5 13:08:51 10° SSE 13:14:07 43° E 13:16:53 25° NE
Cosmos 158 Rocket 4.2 13:13:51 10° S 13:18:29 42° ESE 13:19:03 40° E
USA 267 3.3 13:15:07 28° E 13:18:46 68° NNE 13:25:16 10° WNW
H-2A R/B 3.3 13:17:54 10° N 13:21:51 40° WNW 13:25:52 10° SW
NOSS 3-3 (A) 4.5 13:14:51 10° NW 13:22:13 88° NE 13:30:31 10° SE
NOSS 3-3 (C) 4.5 13:14:55 10° NW 13:22:19 87° NE 13:30:36 10° SE
SL-16 R/B 3.1 13:17:43 10° SW 13:23:09 46° NW 13:27:42 15° NNE
Cosmos 44 Rocket 3.5 13:21:26 10° NW 13:26:37 80° SW 13:30:47 16° SSE
Cosmos 1656 Rocket 3.7 13:20:59 10° NNW 13:26:40 80° WSW 13:32:13 10° SSE
Cosmos 923 Rocket 4.1 13:23:25 10° S 13:28:28 53° ESE 13:29:31 45° ENE
Cosmos 1697 Rocket 4.5 13:25:03 10° N 13:27:52 16° NNE 13:27:52 16° NNE
X-37B 2.3 13:26:28 10° SW 13:28:58 26° S 13:28:58 26° S
NOAA 15 4.5 13:26:16 10° SSE 13:31:30 67° ENE 13:36:44 10° N
Okean O Rocket 3.7 13:29:25 10° SSW 13:33:12 28° W 13:37:01 10° NW
Lacrosse 5 rocket 1.7 13:29:53 10° W 13:33:22 42° NNW 13:33:24 42° NNW
Cosmos 1605 Rocket 4.3 13:28:24 10° N 13:33:43 40° ENE 13:33:43 40° ENE
CZ-2C R/B 2.7 13:29:44 10° SSE 13:34:40 76° ENE 13:39:27 10° NNW
Okean-O 2.5 13:31:37 10° SSE 13:36:03 78° ENE 13:40:30 10° NNW
Cosmos 1500 3.8 13:34:47 10° NNW 13:38:33 56° W 13:42:18 10° S
SKYMED 2 3.5 13:38:21 42° NNE 13:39:48 89° WNW 13:44:09 10° SSW
Cosmos 1869 Rocket 3.5 13:37:48 10° N 13:42:20 88° ENE 13:46:48 10° S
H-2A R/B 1.9 13:42:48 44° SE 13:44:18 64° ENE 13:49:21 10° N
CENTAUR R/B 2.9 13:41:53 10° S 13:47:16 41° ESE 13:47:16 41° ESE
SL-24 R/B 4.1 13:49:05 58° SW 13:49:05 58° SW 13:52:05 10° SSW
CSL-04 Debris 4.1 13:48:14 42° SE 13:50:01 68° ENE 13:55:29 10° NNW
Cosmos 1680 Rocket 3.4 13:49:45 10° SSW 13:54:46 66° SE 13:54:46 66° SE
Cosmos 1535 Rocket 4.3 13:49:05 10° N 13:55:13 76° E 14:01:21 10° SSE
NOSS 3-2 (C) 3.8 13:53:03 10° SSW 13:57:31 42° SE 13:57:31 42° SE
Meteor 2-6 Rocket 4.3 13:55:20 10° SSW 14:00:52 71° WNW 14:04:26 22° N
CSL-04 Rocket 3.4 14:03:43 80° ENE 14:03:45 80° ENE 14:09:04 10° NNW
Cosmos 1371 Rocket 4.0 14:02:26 10° NNW 14:07:39 75° WSW 14:08:41 56° S
Cosmos 1980 Rocket 4.2 14:04:52 10° N 14:06:26 14° N 14:06:26 14° N
Meteor 1-11 Rocket 4.0 14:04:16 10° NNW 14:10:01 70° W 14:15:52 10° S
SL-23 DEB 4.5 14:06:49 10° WSW 14:10:55 81° S 14:10:55 81° S
YAOGAN 1 3.1 14:12:24 56° W 14:12:24 56° W 14:16:36 10° NNW
Cosmos 371 Rocket 3.6 14:07:32 10° NNW 14:12:23 65° WSW 14:12:45 63° SW
Cosmos 2056 Rocket 3.6 14:08:32 10° NNW 14:13:50 76° WSW 14:14:16 71° SSW
Cosmos 1812 4.2 14:10:35 10° SSW 14:13:16 34° WSW 14:13:16 34° WSW
Cosmos 2237 Rocket 4.5 14:11:45 10° WNW 14:14:59 15° NNW 14:17:33 12° N
Cosmos 1934 Rocket 4.1 14:09:00 10° NNW 14:15:23 77° W 14:21:40 10° S
Cosmos 2112 Rocket 4.4 14:10:33 10° SSW 14:14:40 56° SSW 14:14:40 56° SSW
ISS -1.1 14:13:04 10° W 14:14:26 21° W 14:14:26 21° W
Cosmos 1603 4.2 14:13:12 10° SW 14:18:43 57° NW 14:19:58 46° N
Cosmos 1943 3.6 14:15:32 10° SW 14:21:08 61° NW 14:22:09 52° NNW
NOSS 3-2 (A) 3.3 14:17:19 10° SW 14:23:07 90° NNW 14:23:08 89° N
Helios 1A Rocket 4.4 14:24:29 34° W 14:24:29 34° W 14:27:45 10° NNW
ARGOS 3.6 14:26:41 54° NNW 14:26:41 54° NNW 14:30:49 10° NNW
USA 215 3.3 14:27:39 60° SSE 14:27:39 60° SSE 14:33:38 10° SW
COSMO-SKYMED 1 4.1 14:26:57 31° NW 14:27:43 33° WNW 14:31:36 10° SW
CZ-4 R/B 3.2 14:29:46 30° W 14:29:46 30° W 14:33:25 10° NNW
USA 238 DEB 3.6 14:36:26 10° SW 14:42:46 79° W 14:42:46 79° W
USA 238 3.6 14:36:31 10° SW 14:42:50 79° W 14:42:50 79° W
Lacrosse 4 Rocket 4.3 14:39:35 10° SW 14:39:38 10° SW 14:39:38 10° SW
MOS 1 Rocket 4.3 14:44:22 52° W 14:44:22 52° W 14:49:20 10° SW
USA 281 4.2 14:43:32 10° S 14:49:42 42° WSW 14:55:55 10° NW
USA 267 3.6 15:02:28 59° WSW 15:02:28 59° WSW 15:08:23 10° WNW
SL-16 R/B 4.5 15:05:29 10° WNW 15:08:47 15° NNW 15:09:35 15° NNW
H-2A R/B 4.2 15:23:25 21° WSW 15:24:09 22° W 15:28:04 10° NW
CENTAUR R/B 4.1 15:31:41 10° WSW 15:34:29 29° WSW 15:34:29 29° WSW
Cosmos 2263 Rocket 4.4 22:34:45 20° NE 22:34:45 20° NE 22:36:24 10° NE
CZ-4C R/B 4.2 22:38:12 22° E 22:38:12 22° E 22:41:27 10° ENE
ATLAS 3B R/B 3.7 22:42:17 41° ESE 22:42:17 41° ESE 22:46:50 10° SE
Cosmos 2344 4.2 22:54:20 62° NNW 22:56:10 75° NE 23:08:30 10° SE
SJ 16-02 4.1 23:19:59 12° NNE 23:19:59 12° NNE 23:20:22 10° NNE
NOSS 3-4 (A) 3.8 23:21:54 59° NE 23:21:54 59° NE 23:27:04 10° NE
NOSS 3-4 (C) 3.8 23:21:59 59° NE 23:21:59 59° NE 23:27:10 10° NE
Lacrosse 5 2.9 23:29:46 42° ENE 23:29:46 42° ENE 23:33:09 10° ENE
Cosmos 2227 Rocket 4.4 23:35:41 13° N 23:35:41 13° N 23:36:46 10° NNE
Meteor 2-3 Rocket 3.9 23:36:26 68° NE 23:36:26 68° NE 23:41:38 10° NNE
RESURS DK-1 4.3 23:39:03 26° NE 23:39:03 26° NE 23:41:07 10° NE
ATLAS 2AS CENTAUR R/B 2.9 23:38:43 63° SW 23:40:14 89° SE 23:48:05 10° NE
BREEZE-M DEB (TANK) 4.3 23:41:14 59° SSW 23:41:14 59° SSW 23:44:53 10° SE
Cosmos 1844 Rocket 3.4 23:44:17 24° S 23:47:31 51° ESE 23:53:00 10° NE
ALOS 3.0 23:44:33 10° NNE 23:48:09 48° NE 23:48:09 48° NE
Cosmos 1709 Rocket 4.3 23:50:55 54° NNW 23:50:55 54° NNW 23:55:54 10° N
COSMO-SKYMED 1 3.4 23:47:13 10° SE 23:51:24 48° ENE 23:51:27 48° ENE
ATLAS CENTAUR R/B 4.0 23:55:38 11° SSE 23:55:38 11° SSE 23:55:51 10° SSE
Cosmos 2181 Rocket 4.2 23:55:15 52° SSW 23:55:15 52° SSW 23:59:50 10° S
